#timestamp,LO_Frequency,Hit,StdDev 
1701961215.1,286046998.2,N
1701961216.0,286046998.2,N
1701961235.8,286047000.1,N
1701961255.6,286047002.7,N
1701961275.5,286047002.2,N
1701961295.3,286047000.7,N
1701961315.2,286046999.9,N
1701961335.9,286047000.9,N
1701961355.7,286047001.2,N
1701961375.6,286046998.3,N
1701961395.4,286046999.0,N
1701961415.2,286046999.0,N
1701961435.1,286046996.9,N
1701961436.0,286046996.9,N
1701961455.8,286046996.7,N
1701961475.7,286046999.5,N
1701961495.5,286047000.8,N
1701961515.3,286047002.8,N
1701961535.2,286047001.7,N
1701961555.0,286046999.9,N
1701961555.9,286046999.9,N
1701961575.7,286047001.2,N
1701961595.6,286047001.1,N
1701961615.4,286047001.1,N
1701961635.3,286047000.3,N
1701961655.1,286047000.4,N
1701961656.0,286047000.4,N
1701961675.8,286047000.6,N
1701961695.7,286047000.7,N
1701961715.5,286047000.3,N
1701961735.3,286047002.6,N
1701961755.2,286047001.6,N
1701961775.0,286046999.7,N
1701961775.9,286046999.7,N
1701961795.3,286047000.3,N
1701961815.1,286047000.8,N
1701961835.9,286046998.6,N
1701961855.7,286046998.6,N
1701961875.5,286046999.7,N
1701961895.4,286047000.0,N
1701961915.2,286047000.2,N
1701961935.1,286047002.0,N
1701961936.0,286047002.0,N
1701961955.8,286047002.8,N
1701961975.6,286047002.5,N
1701961995.5,286047002.0,N
1701962015.3,286047002.5,N
1701962035.1,286047000.0,N
1701962055.9,286047000.7,N
1701962075.7,286047000.3,N
1701962095.6,286047000.6,N
1701962115.4,286046998.5,N
1701962135.2,286047000.3,N
1701962155.1,286046998.2,N
1701962156.0,286046998.2,N
1701962175.8,286046999.9,N
1701962195.6,286047000.6,N
1701962215.5,286047000.1,N
1701962235.3,286047000.2,N
1701962255.2,286047002.3,N
1701962275.9,286046999.8,N
1701962295.7,286047000.1,N
1701962315.6,286046999.8,N
1701962335.4,286047000.3,N
1701962355.2,286046998.8,N
1701962375.1,286046998.1,N
1701962376.0,286046998.1,N
1701962395.8,286047000.4,N
1701962415.7,286047000.3,N
1701962435.5,286047000.2,N
1701962455.3,286047000.5,N
1701962475.2,286047000.1,N
1701962495.0,286047000.6,N
1701962495.9,286047000.6,N
1701962515.8,286047000.5,N
1701962535.6,286047000.9,N
1701962555.4,286047002.7,N
1701962575.3,286047000.1,N
1701962595.1,286047000.2,N
1701962615.8,286046999.7,N
1701962635.7,286047002.3,N
1701962655.5,286047000.9,N
1701962675.4,286047000.5,N
1701962695.2,286046998.4,N
1701962715.0,286046998.4,N
1701962715.9,286046998.4,N
1701962735.8,286046998.8,N
1701962755.6,286046998.4,N
1701962775.4,286046998.2,N
1701962795.3,286046998.2,N
1701962815.1,286046998.2,N
1701962835.9,286046999.9,N
1701962855.7,286047000.3,N
1701962875.5,286047000.0,N
1701962895.4,286047001.0,N
1701962915.2,286047002.7,N
1701962935.0,286047002.4,N
1701962935.9,286047002.4,N
1701962955.8,286047004.4,Y
1701962975.6,286047001.8,P
1701962995.5,286047002.1,N
1701963015.3,286047000.3,N
1701963035.1,286047002.4,N
1701963055.9,286047002.3,N
1701963075.7,286047002.2,N
1701963095.6,286047002.1,N
1701963115.4,286047001.7,N
1701963135.2,286047002.4,N
1701963155.1,286047002.7,Y
1701963156.0,286047002.7,P
1701963175.8,286046999.4,N
1701963195.6,286046998.5,N
1701963215.5,286046998.5,N
1701963235.3,286047001.1,N
1701963255.2,286046998.5,N
1701963275.9,286046996.5,N
1701963295.7,286046999.2,N
1701963315.6,286046996.5,N
1701963335.4,286046999.2,N
1701963355.2,286046996.5,N
1701963375.1,286046999.0,N
1701963376.0,286046999.0,N
1701963395.8,286046998.8,N
1701963415.7,286047000.5,N
1701963435.5,286047001.5,N
1701963455.3,286047000.9,N
1701963475.2,286047000.8,N
1701963495.0,286047001.2,N
1701963495.9,286047001.2,N
1701963515.7,286046999.4,N
1701963535.6,286046999.3,N
1701963555.4,286046999.0,N
1701963575.3,286046999.0,N
1701963595.1,286046999.6,N
1701963596.0,286046999.6,N
1701963615.8,286046999.1,N
1701963635.7,286046996.7,N
1701963655.5,286046997.5,N
1701963675.3,286046997.3,N
1701963695.2,286046997.0,N
1701963715.0,286046996.7,N
1701963715.9,286046996.7,N
1701963735.8,286046999.3,N
1701963755.6,286046998.4,N
1701963775.4,286046999.4,N
1701963795.3,286046999.3,N
1701963815.1,286046999.6,N
1701963835.9,286046996.9,N
1701963855.7,286046999.5,N
1701963875.5,286046999.3,N
1701963895.4,286047000.4,N
1701963915.2,286047002.8,N
1701963935.0,286046998.6,N
1701963935.9,286046998.6,N
1701963955.8,286047001.2,N
1701963975.6,286047000.4,N
1701963995.5,286046998.2,N
1701964015.3,286046998.1,N
1701964035.1,286046999.3,N
1701964055.9,286046999.1,N
1701964075.7,286046997.3,N
1701964095.6,286046996.9,N
1701964115.4,286046999.4,N
1701964135.2,286046999.4,N
1701964155.1,286046999.3,N
1701964156.0,286046999.3,N
1701964175.8,286046999.5,N
1701964195.6,286047001.2,N
1701964215.5,286046998.3,N
1701964235.3,286046998.1,N
1701964255.2,286046998.3,N
1701964275.9,286047001.2,N
1701964295.7,286046996.6,N
1701964315.6,286046998.8,N
1701964335.4,286046998.9,N
1701964355.2,286046998.6,N
1701964375.1,286046999.6,N
1701964376.0,286046999.6,N
1701964395.8,286046998.9,N
1701964415.7,286046996.5,N
1701964435.5,286046998.9,N
1701964455.7,286046999.3,N
1701964475.6,286046999.1,N
1701964495.4,286046997.4,N
1701964515.2,286046996.5,N
1701964535.1,286046997.1,N
1701964536.0,286046997.1,N
1701964555.8,286046999.0,N
1701964575.7,286046999.3,N
1701964625.5,286046999.4,E
1701964635.5,286046998.5,N
1701964655.5,286047000.1,P
1701964675.3,286047002.8,P
1701964695.2,286046998.7,N
1701964715.0,286046998.6,N
1701964715.9,286046998.6,N
1701964735.8,286046998.7,N
1701964755.6,286046998.6,N
1701964775.4,286046998.3,N
1701964795.3,286046998.4,N
